Temp
16 16 15 15 15 14 14 14 14 14 14 13 13 13 13 13 13 13 12 12 12 12 12 12 12 12 12 12 12 12 12 12 12 12 12 12 12 12 12 12 12 13 14 14 14 15 16 16 16 17 17 17 16 16 16 16 16 16 15 15 16 16 15 15 15 15 17 17 17 18 18 17 16 16 17 16 15 14 15 15 15 15 15 14 14
16 16 15 15 15 14 14 14 14 14 13 13 13 13 13 13 12 12 12 12 12 12 12 12 12 12 12 11 12 11 11 11 12 12 12 12 12 12 12 12 12 12 13 13 14 14 15 16 16 17 17 17 17 17 16 16 16 16 15 15 15 16 15 15 15 15 16 16 17 17 16 16 16 15 16 16 14 14 14 14 14 14 14 14 13
16 16 15 15 15 14 14 14 14 13 13 13 13 13 12 12 12 12 12 12 12 12 12 12 12 12 12 11 11 11 11 11 11 11 12 12 12 12 12 12 12 12 12 12 13 13 14 15 16 16 17 17 17 17 17 17 17 16 16 16 15 16 15 15 15 15 15 15 16 16 15 16 16 15 15 16 14 14 14 13 13 13 13 13 13
16 16 15 15 15 14 14 14 14 13 13 13 13 12 12 12 12 12 12 12 12 12 12 12 12 12 11 11 11 11 11 11 11 11 11 11 12 12 12 12 12 12 13 12 12 13 13 14 15 16 16 17 17 17 17 17 17 17 17 16 16 16 16 15 15 15 15 15 16 16 15 16 16 15 15 15 14 14 13 12 12 12 12 12 13
16 16 15 15 14 14 14 14 14 13 13 13 13 12 12 12 12 12 12 12 12 12 12 11 11 11 11 11 11 11 11 11 11 11 11 11 11 12 12 12 12 12 12 13 13 13 13 13 14 15 15 16 16 17 17 17 17 17 17 17 17 16 16 16 15 15 15 15 16 16 16 16 16 15 15 14 13 12 12 12 11 11 10 11 12
16 16 16 15 15 14 14 14 13 13 13 13 12 12 12 12 12 12 12 12 12 12 11 11 11 11 11 11 11 11 11 10 10 10 11 11 11 11 12 12 12 12 12 12 12 13 13 13 13 14 15 15 16 16 17 17 18 17 17 17 17 17 16 16 15 15 15 15 16 16 15 16 16 15 14 14 13 12 12 11 11 10 10 10 10
16 16 16 15 15 14 14 14 13 13 13 13 12 12 12 12 12 12 12 12 12 11 11 11 11 11 11 11 11 11 10 10 10 10 10 10 11 11 11 11 12 12 12 12 12 13 13 13 13 13 14 14 15 16 16 16 17 17 18 17 17 17 17 16 16 15 15 15 16 16 15 15 16 15 14 14 13 12 12 11 10 10 10 10 10
16 16 16 15 15 14 14 13 13 13 13 13 12 12 12 12 12 12 12 11 11 11 11 11 11 11 11 11 11 10 10 10 10 10 10 10 10 10 11 11 11 11 12 12 12 12 13 13 13 13 13 13 14 15 15 16 16 17 17 17 17 17 17 17 16 15 15 15 15 15 15 15 15 15 14 13 12 12 12 11 10 9 9 9 9
16 16 16 16 15 14 14 14 13 13 13 13 12 12 12 12 12 12 11 11 11 11 11 11 11 11 10 10 10 10 10 10 10 10 10 10 10 10 10 10 10 11 11 11 12 12 12 12 13 12 12 13 13 14 15 15 16 16 16 17 17 17 17 17 16 15 15 15 15 15 14 14 14 14 13 13 12 12 11 11 10 9 9 8 8
16 16 16 15 15 14 14 14 13 13 13 12 12 12 12 12 12 11 11 11 11 11 10 10 10 10 10 9 9 10 10 10 10 10 10 9 9 9 9 9 9 9 9 10 10 11 11 12 12 12 12 12 12 13 13 14 15 15 16 16 16 16 16 16 15 15 15 15 15 15 14 13 13 13 13 13 13 12 11 10 10 9 8 7 7
16 16 16 15 15 14 14 14 13 13 13 12 12 12 12 12 11 11 11 11 11 10 10 10 9 9 8 8 8 8 9 9 9 9 9 9 9 9 8 8 8 8 8 9 9 9 10 10 11 11 12 12 12 12 12 13 14 14 15 15 15 15 15 14 15 15 15 14 14 14 14 13 13 14 13 13 12 11 10 10 10 9 8 7 7
16 16 15 15 15 14 14 14 13 13 13 13 12 12 12 12 11 11 11 11 10 10 10 9 8 8 7 7 7 7 8 8 8 8 8 8 8 8 8 8 8 8 8 8 8 8 9 9 9 10 10 11 12 12 12 12 13 14 14 15 15 15 15 15 14 14 14 14 14 14 14 14 13 13 13 13 12 11 11 10 10 9 8 8 8
16 15 15 15 15 14 14 14 13 13 13 13 13 12 12 11 11 11 11 10 10 10 9 8 7 7 7 7 6 6 7 7 7 7 7 7 7 7 7 7 7 7 7 7 8 8 8 8 9 9 9 10 10 11 11 12 13 14 14 15 15 15 15 15 15 15 14 14 14 14 14 14 13 13 13 13 12 11 11 10 10 9 9 9 9
15 15 15 15 15 14 14 14 14 13 13 13 12 12 12 11 11 11 10 10 10 9 8 7 7 7 6 6 6 6 6 6 6 6 6 6 6 6 6 6 6 6 6 7 7 7 7 8 8 8 8 9 9 10 11 11 12 13 14 15 15 15 15 15 15 15 15 14 14 14 14 14 14 14 13 13 13 12 11 11 10 10 10 9 9
15 15 15 15 15 14 14 14 13 13 13 13 12 12 11 11 11 10 10 10 9 8 7 7 7 6 6 6 6 6 6 6 6 6 6 6 6 6 6 5 5 5 5 6 6 6 7 7 7 7 7 8 8 9 10 10 11 12 12 13 14 15 15 15 15 15 15 15 14 14 14 14 14 14 14 13 13 12 12 12 11 10 10 10 10
15 15 15 15 14 14 14 14 13 13 13 12 12 12 11 11 11 10 10 10 8 7 7 7 6 6 6 6 6 6 6 6 6 6 5 5 5 5 5 5 5 5 5 5 5 6 6 6 6 7 7 7 7 8 8 9 10 10 10 11 12 14 15 15 15 15 16 15 15 15 15 14 14 13 14 13 13 12 12 11 11 10 10 10 9
16 15 15 14 14 14 13 13 13 13 13 12 12 11 11 11 11 10 10 9 8 7 7 6 6 6 6 6 6 6 6 5 5 5 5 5 5 4 4 4 4 4 5 5 5 5 5 5 6 6 6 7 7 7 7 8 8 8 9 9 10 12 14 15 15 15 16 16 16 16 15 15 14 14 14 14 13 12 11 11 10 11 10 9 8
16 15 15 14 14 14 13 13 13 13 12 12 12 11 11 10 10 10 9 8 7 6 6 6 6 6 5 5 5 5 5 5 5 5 5 5 4 4 4 4 4 4 4 4 4 5 5 5 5 5 6 6 6 6 7 7 7 8 8 9 10 10 12 14 15 15 15 15 15 15 15 15 15 14 14 14 13 12 12 11 11 10 10 9 8
15 15 15 14 14 13 13 13 12 12 12 11 11 11 10 10 10 9 9 7 7 6 6 6 6 5 5 5 5 4 4 5 4 4 4 4 4 4 4 4 4 4 4 4 4 4 4 4 5 5 5 5 6 6 6 6 7 7 7 9 10 10 11 13 15 15 15 15 15 14 14 15 14 14 14 13 13 12 13 12 11 11 10 10 8
15 14 14 13 13 13 13 12 12 11 11 11 10 10 10 10 9 9 8 7 6 6 6 5 5 5 4 4 4 4 4 4 4 4 4 4 4 3 3 3 3 3 3 4 4 4 4 4 4 5 5 5 5 5 6 6 6 6 7 7 9 10 11 13 14 15 15 15 14 14 14 14 14 14 13 13 13 13 13 12 11 11 11 9 8
14 13 13 13 13 13 12 12 11 11 10 10 10 10 9 9 9 8 7 6 6 5 5 5 4 4 4 4 4 4 4 4 4 3 3 3 3 2 2 3 3 3 3 3 3 3 3 4 4 4 5 5 5 5 5 6 6 6 6 6 7 8 10 11 12 13 14 14 13 13 13 13 13 13 12 12 12 12 11 11 11 11 11 10 8
13 13 13 13 13 12 12 11 11 11 10 10 10 10 9 9 8 7 6 6 5 5 5 4 4 4 3 3 3 3 3 3 3 2 2 2 2 2 2 2 2 3 3 3 3 3 3 3 3 4 4 5 5 5 5 6 6 6 6 6 6 7 8 8 9 12 13 12 12 11 12 12 11 11 11 11 11 10 10 11 11 10 10 10 10
13 13 13 13 12 12 12 11 11 11 11 10 10 10 9 9 8 7 6 5 5 4 4 4 3 3 3 3 3 2 2 2 2 1 1 1 1 1 1 2 2 2 2 2 3 3 3 3 3 4 4 4 5 5 5 6 6 6 6 6 6 7 7 7 8 10 11 11 10 10 10 10 10 9 9 9 9 9 10 10 10 9 9 9 9
13 13 12 12 12 12 12 12 11 11 11 10 10 9 9 8 7 6 6 5 5 4 4 3 3 3 2 2 2 1 1 1 1 1 1 1 1 1 1 1 2 2 2 2 2 2 2 2 3 3 4 4 5 5 6 6 6 6 6 6 7 7 7 6 8 10 11 10 9 9 9 9 9 9 9 8 8 9 9 9 9 9 9 9 9
12 12 12 12 12 12 12 11 11 11 10 10 10 10 9 8 7 6 6 5 4 4 3 3 3 2 2 1 1 1 1 0 0 -0 -0 0 0 1 1 1 1 1 1 1 1 2 2 2 2 3 3 4 5 5 6 6 6 7 7 7 7 7 6 7 8 9 9 9 9 8 8 8 8 8 8 8 8 8 9 8 8 8 8 9 9
12 12 12 12 12 12 12 11 10 10 10 10 10 10 9 8 7 6 5 5 4 4 3 3 2 1 1 1 0 0 0 -0 -0 -0 -0 -0 0 0 0 -0 -0 0 0 0 0 1 1 1 1 2 3 4 5 6 6 6 6 7 7 7 7 7 7 8 9 9 9 8 8 8 7 7 7 7 7 7 8 8 8 8 7 7 8 8 8
12 12 12 12 12 12 11 11 10 10 10 10 10 9 9 8 7 6 5 4 4 3 3 2 1 1 0 0 -0 -0 -0 -1 -1 -1 -1 -1 -1 -1 -1 -1 -1 -1 -1 -0 -0 0 1 2 2 2 2 3 5 5 5 5 6 6 7 7 7 7 8 9 9 9 9 8 7 7 6 6 6 6 6 6 6 6 7 7 7 6 6 7 6
12 12 12 12 12 11 11 11 11 11 10 10 10 9 8 7 6 6 5 4 4 3 3 2 1 1 0 -0 -1 -1 -1 -1 -1 -1 -1 -1 -2 -2 -2 -2 -1 -1 -1 -0 0 1 1 2 2 2 2 3 4 4 5 5 5 6 7 7 7 7 8 9 10 9 8 7 6 6 5 6 5 5 5 5 5 5 6 7 6 5 5 6 4
12 12 12 12 11 11 11 11 11 11 10 10 10 9 8 8 7 6 5 4 4 3 3 2 1 0 -0 -1 -1 -1 -1 -1 -1 -2 -2 -2 -2 -1 -1 -1 -1 -1 -0 0 0 1 2 3 2 2 3 3 3 4 4 5 5 6 7 7 7 8 9 9 9 8 7 6 6 5 5 4 4 4 4 4 4 4 5 6 5 5 4 4 3
12 13 13 12 11 11 11 11 11 11 10 10 9 9 8 8 7 6 5 5 4 4 3 2 1 0 -0 -1 -1 -1 -2 -2 -2 -2 -2 -1 -1 -1 -1 -1 -0 0 1 2 1 1 2 2 3 3 3 3 4 4 4 5 5 6 7 7 8 8 9 8 8 7 6 6 5 5 4 4 3 3 3 3 2 3 4 4 4 4 3 3 2
13 13 13 12 11 11 12 12 11 11 10 10 9 9 8 8 7 6 6 5 5 4 3 2 1 0 -0 -1 -1 -1 -2 -2 -2 -1 -1 -1 -1 -1 -0 -0 1 1 2 2 2 2 2 3 3 3 4 4 4 4 5 5 5 6 7 7 8 8 8 7 6 6 5 5 4 4 4 3 3 3 3 2 2 2 3 3 3 3 3 3 2
13 13 12 12 11 11 12 12 11 11 10 10 9 8 8 8 7 7 6 5 5 5 3 2 1 0 -0 -1 -1 -1 -2 -1 -1 -1 -1 -1 -1 -1 -0 0 1 2 3 3 3 3 3 3 3 4 4 4 4 5 5 5 5 5 6 6 6 6 6 6 6 5 5 4 3 3 3 3 3 2 2 2 2 2 2 2 3 3 2 3 3
12 12 11 11 11 11 12 11 11 11 10 9 9 8 8 8 7 7 6 6 5 4 3 2 1 0 -0 -1 -1 -1 -1 -1 -1 -1 -1 -1 -1 -0 0 0 1 2 3 3 4 4 4 4 4 4 4 4 4 4 4 4 5 5 5 5 4 4 5 5 5 5 4 4 3 3 2 2 2 2 2 2 2 2 2 2 2 3 3 3 3
12 12 11 11 11 11 12 11 11 11 10 9 9 8 8 8 7 7 7 6 5 4 3 2 1 1 -0 -1 -1 -1 -1 -1 -1 -1 -1 -1 -1 -0 0 1 1 2 3 3 3 3 4 4 4 4 4 4 4 4 4 4 4 4 4 4 4 3 3 4 4 4 3 3 3 2 2 2 2 2 2 2 2 2 2 3 3 3 4 4 4
12 12 11 11 11 11 11 11 11 10 10 9 9 9 8 8 7 7 7 6 4 3 3 2 2 1 0 -1 -1 -1 -1 -1 -1 -1 -1 -1 -1 -1 -0 -0 0 1 1 2 2 2 3 3 3 3 3 3 3 3 4 4 4 4 3 3 3 3 3 3 3 3 3 3 2 2 2 2 2 2 2 2 2 2 3 3 4 4 4 4 5
12 12 12 11 11 11 11 11 11 10 10 9 9 9 9 8 7 7 7 6 5 3 3 2 2 1 0 -0 -1 -1 -1 -1 -1 -1 -1 -1 -1 -1 -1 -1 -1 -1 -0 0 1 1 2 2 3 3 3 3 3 3 3 3 3 3 2 2 2 2 2 2 2 2 2 2 2 2 2 2 2 2 3 3 2 2 3 3 4 4 4 5 5
12 12 11 11 11 11 10 10 10 10 10 10 9 9 9 8 7 7 7 6 5 4 3 2 2 1 0 -0 -1 -1 -1 -1 -1 -1 -1 -1 -1 -1 -2 -1 -1 -1 -1 -1 -0 0 0 1 1 2 2 2 3 3 2 2 2 2 2 2 2 2 2 2 2 2 2 2 2 2 2 2 2 3 3 3 3 3 4 4 4 5 5 5 5
11 11 11 10 10 10 10 10 10 10 10 10 9 9 8 8 7 7 7 6 5 4 3 2 2 1 -0 -1 -1 -1 -1 -1 -1 -1 -1 -2 -2 -2 -2 -2 -2 -2 -1 -1 -1 -1 -1 -1 -0 0 1 1 2 2 2 2 1 1 1 1 1 1 1 1 2 2 2 2 2 2 2 3 3 4 4 4 4 4 4 5 5 5 5 5 5
11 10 10 10 10 10 10 10 10 10 9 10 9 9 8 8 8 8 7 6 6 5 3 3 2 1 0 -0 -1 -1 -1 -1 -1 -1 -2 -2 -2 -2 -2 -2 -2 -2 -2 -2 -1 -1 -1 -1 -1 -0 -0 0 1 1 1 1 1 1 1 1 1 1 1 1 1 1 2 2 2 3 3 3 4 4 4 4 4 4 4 5 5 5 5 5 5
10 10 10 10 10 10 10 10 10 9 9 9 9 9 8 8 8 8 7 6 6 5 4 3 3 2 1 0 -0 -1 -1 -1 -1 -1 -2 -2 -2 -2 -2 -2 -2 -2 -2 -2 -2 -2 -2 -2 -1 -1 -1 -1 -0 0 0 1 1 1 1 1 1 1 1 1 2 2 2 2 3 3 3 3 4 4 4 4 4 4 4 4 5 5 5 5 4
10 10 10 10 10 10 10 10 9 9 9 9 9 9 9 8 8 8 8 7 6 6 5 4 4 3 2 1 1 -0 -1 -1 -1 -2 -2 -2 -2 -2 -3 -3 -3 -2 -2 -2 -2 -2 -2 -2 -2 -2 -1 -1 -1 -1 -0 -0 0 0 1 1 1 1 1 1 2 2 2 2 2 2 2 3 3 3 3 3 4 4 4 4 4 4 4 4 4
10 10 10 10 10 10 10 9 9 9 9 9 9 9 9 8 8 8 8 8 7 6 6 5 4 4 3 2 1 0 -1 -1 -1 -2 -2 -2 -2 -2 -3 -3 -3 -3 -3 -3 -2 -2 -2 -2 -2 -2 -2 -2 -2 -1 -1 -1 -1 -0 -0 -0 0 0 1 1 1 1 2 2 2 2 2 2 2 3 3 3 3 3 3 3 4 4 4 4 4
10 10 10 10 10 10 9 9 9 9 9 9 9 9 9 9 9 9 8 8 7 7 6 5 5 4 3 3 2 1 -0 -1 -1 -2 -2 -2 -2 -2 -3 -3 -3 -3 -3 -3 -3 -3 -3 -2 -2 -2 -2 -2 -2 -2 -2 -1 -1 -1 -1 -1 -1 -0 -0 0 1 1 1 1 1 2 2 2 2 2 2 2 2 3 3 3 3 3 4 3 3
10 10 10 10 10 10 9 9 9 9 9 9 9 9 10 10 10 9 9 8 8 7 6 5 5 4 4 3 3 2 1 -0 -1 -1 -2 -2 -2 -2 -3 -3 -3 -3 -3 -3 -3 -3 -3 -3 -3 -3 -3 -2 -2 -2 -2 -2 -2 -1 -1 -1 -1 -1 -1 -0 0 0 1 1 1 1 2 2 2 2 2 2 2 2 3 3 3 3 3 4 4
10 10 11 11 10 10 9 9 9 9 9 10 10 10 10 10 10 10 9 9 8 7 7 6 5 5 4 4 3 2 1 1 -0 -1 -1 -2 -2 -2 -2 -3 -3 -3 -3 -3 -3 -3 -3 -3 -3 -3 -3 -3 -3 -2 -2 -2 -2 -2 -2 -2 -2 -1 -1 -1 -0 0 1 1 1 1 1 1 1 2 2 2 2 2 3 3 3 3 3 4 4
10 10 10 10 10 10 10 10 10 10 10 10 10 10 10 10 10 10 9 9 8 8 7 6 6 5 5 4 3 3 2 1 0 -0 -1 -1 -1 -2 -2 -2 -3 -3 -3 -3 -3 -3 -3 -3 -3 -3 -3 -3 -3 -3 -3 -3 -2 -2 -2 -2 -2 -2 -1 -1 -0 0 0 0 0 0 0 0 1 1 1 1 2 2 2 3 3 3 3 3 4
9 10 9 10 10 10 10 10 10 10 10 10 10 10 9 10 10 10 10 9 9 8 7 7 6 5 5 4 4 3 3 2 1 1 -0 -1 -1 -1 -2 -2 -2 -3 -3 -3 -3 -3 -3 -3 -3 -3 -3 -3 -3 -3 -3 -3 -3 -3 -2 -2 -2 -2 -2 -1 -1 -0 -0 -0 0 -0 -0 -0 -0 0 1 1 1 2 2 2 2 3 3 3 4
9 9 9 8 9 9 9 9 9 9 8 8 8 7 7 8 8 8 8 9 9 9 8 7 6 6 5 5 4 4 3 3 2 1 1 0 -0 -1 -1 -2 -2 -2 -3 -3 -3 -3 -3 -3 -3 -3 -3 -3 -2 -3 -3 -3 -2 -2 -2 -2 -2 -2 -2 -2 -1 -1 -1 -1 -1 -1 -1 -1 -0 -0 0 1 1 1 2 2 2 2 3 3 3
8 8 8 7 7 7 7 8 8 7 7 6 6 6 5 5 6 6 6 7 7 8 8 8 7 6 6 6 5 5 4 3 3 2 2 1 0 0 -0 -1 -1 -2 -2 -2 -2 -3 -2 -3 -3 -2 -2 -2 -2 -2 -2 -2 -2 -2 -2 -2 -2 -2 -2 -2 -2 -2 -1 -1 -1 -1 -1 -1 -1 -0 0 1 1 1 2 2 2 2 3 3 3
7 7 7 7 6 6 6 6 7 6 6 5 5 5 4 4 4 4 4 5 5 6 7 8 8 7 7 6 6 5 5 4 3 3 2 2 1 1 1 0 -0 -1 -1 -2 -2 -2 -2 -2 -2 -2 -2 -2 -2 -2 -2 -2 -2 -2 -2 -2 -2 -2 -2 -2 -2 -2 -2 -2 -1 -1 -1 -1 -1 -0 0 1 1 1 2 2 2 2 2 3 3
5 5 5 5 5 5 5 5 5 5 5 4 4 4 3 3 3 3 3 3 3 4 5 6 6 6 6 6 6 5 5 4 4 3 3 2 2 2 2 1 0 -0 -1 -1 -1 -1 -1 -2 -2 -2 -2 -2 -1 -1 -1 -1 -2 -2 -2 -2 -2 -2 -2 -2 -2 -2 -2 -2 -2 -1 -1 -1 -0 0 1 1 1 1 2 2 2 2 2 2 3
Height
774 776 778 780 782 783 785 786 788 789 790 791 791 792 793 793 794 794 794 794 794 794 793 793 793 792 792 792 791 790 790 789 789 788 788 787 786 786 785 785 784 783 782 781 781 780 779 778 778 778 778 778 778 779 780 781 782 782 784 785 785 787 789 789 789 788 789 791 793 794 796 800 801 797 795 797 799 801 803 805 807 809 811 814 819
772 774 776 778 780 781 783 785 786 788 789 790 790 791 792 792 793 793 793 793 793 792 792 792 791 791 790 790 789 789 788 787 787 786 786 785 784 784 783 783 782 781 780 779 779 778 777 776 775 775 775 775 775 775 776 777 778 778 780 781 781 782 784 785 786 786 786 788 791 793 793 795 800 800 797 796 797 799 801 804 806 809 810 811 815
770 772 774 776 778 780 782 783 785 786 787 788 789 790 790 791 791 791 791 791 791 791 791 790 790 789 788 788 787 787 786 786 785 785 784 783 782 782 781 780 780 779 778 778 777 777 775 773 773 773 773 772 772 772 772 773 775 775 775 776 777 777 779 780 782 783 783 785 788 790 791 792 796 799 798 796 796 797 799 802 805 807 809 810 813
768 770 772 774 776 778 780 782 783 784 785 787 787 788 789 789 790 790 790 790 790 790 789 789 788 788 787 786 785 785 784 784 784 783 782 782 780 779 779 778 778 777 776 776 775 775 774 772 771 771 770 770 769 769 769 770 771 771 772 772 773 773 774 776 777 779 780 782 783 785 787 789 792 795 796 795 795 795 797 800 803 806 807 809 812
766 768 770 773 774 776 778 780 781 783 784 785 786 787 788 788 788 788 788 788 788 788 788 787 787 786 785 784 784 783 782 782 782 781 780 780 779 777 777 776 775 775 774 773 773 772 772 770 770 769 768 767 767 767 766 766 767 768 768 769 769 769 770 772 773 775 776 777 779 781 783 785 788 790 791 792 793 795 798 800 802 804 806 808 810
764 766 768 770 772 775 776 778 780 781 782 784 785 785 786 786 787 787 787 787 786 786 786 785 785 784 783 782 782 781 780 780 780 779 778 778 777 775 774 773 773 772 771 771 770 770 769 768 768 767 766 765 764 764 764 764 764 764 764 765 766 766 766 767 769 770 772 773 775 777 778 780 784 786 786 787 788 791 796 800 803 803 804 806 808
761 764 766 768 770 772 774 776 778 780 781 782 783 784 785 785 785 785 785 785 785 784 784 783 783 782 781 780 780 779 778 778 778 777 776 775 775 774 772 771 770 769 769 768 767 767 766 766 765 764 763 762 762 762 761 761 760 760 760 761 762 763 763 763 764 766 768 769 772 773 774 776 779 782 782 783 786 788 792 796 800 802 803 804 805
759 762 764 766 769 770 773 775 776 778 779 780 782 782 783 783 783 783 783 783 783 782 782 781 780 780 779 778 777 777 776 776 775 775 774 773 773 772 770 770 768 767 766 765 764 763 763 762 761 761 761 760 759 759 759 759 758 757 757 757 758 759 759 760 761 762 764 765 767 769 771 773 775 778 781 781 783 786 788 790 793 795 798 801 804
757 760 762 764 767 769 771 773 775 777 778 779 780 781 781 781 781 781 781 781 781 780 780 779 778 777 777 776 775 774 774 773 773 773 772 771 771 770 768 768 766 765 764 763 762 760 759 759 758 757 757 757 756 756 756 756 756 755 754 755 755 755 755 756 756 758 760 761 762 764 767 769 771 774 777 777 778 780 783 786 789 791 794 799 803
755 758 761 763 765 768 770 772 773 775 776 777 778 779 779 779 779 779 779 779 779 778 778 777 776 776 775 774 773 772 771 771 770 770 770 769 769 768 766 765 764 763 762 760 759 758 757 756 754 754 753 753 753 752 752 752 751 751 751 751 752 753 753 753 753 754 755 756 758 759 760 762 765 767 770 772 774 776 779 782 785 789 794 798 802
754 757 759 762 764 767 769 771 772 774 775 776 776 777 777 777 777 777 777 777 777 776 776 775 775 774 774 773 772 771 770 769 769 768 768 768 767 766 764 763 762 761 760 759 757 756 754 753 752 751 750 749 749 749 748 748 747 747 747 747 748 749 750 750 750 751 752 751 753 755 754 755 758 761 764 769 772 773 774 776 780 784 789 792 796
753 756 758 761 763 766 768 769 771 772 773 774 774 775 775 775 775 775 775 775 775 774 774 773 773 773 773 772 771 770 768 768 767 766 766 765 765 763 762 760 759 758 757 756 755 754 752 751 749 748 747 746 746 745 744 744 743 743 743 743 743 744 745 746 747 749 749 748 749 751 750 750 753 755 758 763 767 770 772 774 775 778 781 784 787
753 755 757 760 762 764 766 768 770 771 772 772 773 773 773 773 773 774 773 773 773 772 772 772 772 772 771 770 769 768 767 766 765 764 763 762 761 760 758 757 756 754 753 753 752 751 750 749 747 745 744 744 743 742 741 741 740 740 739 738 738 738 739 740 742 745 747 746 745 744 745 748 750 752 754 758 762 766 769 771 771 773 775 777 779
752 754 757 759 761 763 765 767 768 770 770 771 771 771 772 772 772 772 772 771 770 770 770 770 770 770 770 768 767 765 764 763 762 761 760 759 758 757 755 754 752 750 749 749 748 747 746 746 744 742 742 741 740 739 739 738 737 736 735 734 733 732 733 735 736 738 741 743 742 741 742 745 746 747 751 754 755 757 760 761 764 769 772 774 777
751 754 756 758 760 762 764 766 767 768 769 769 769 770 770 770 770 770 770 770 768 768 768 768 768 768 767 766 764 762 761 760 759 758 757 756 755 754 752 750 748 746 745 744 744 743 742 742 740 738 738 738 737 737 736 736 734 732 731 730 729 728 728 729 730 732 734 736 737 738 739 741 742 744 747 749 751 752 753 754 758 765 772 776 779
751 753 755 758 760 762 764 765 766 767 767 768 768 768 769 769 769 769 768 767 766 766 767 766 766 765 764 763 761 759 757 757 756 755 754 753 752 750 748 746 744 741 740 739 739 738 737 737 735 734 734 733 733 734 734 733 732 729 728 727 726 724 723 723 725 726 728 730 732 734 736 738 740 743 744 746 749 751 755 758 761 766 771 775 778
750 752 755 758 760 761 763 764 765 765 766 766 766 767 767 767 767 767 766 765 765 766 766 765 764 763 761 760 758 756 754 753 753 751 750 749 748 745 744 742 740 737 735 735 734 733 732 731 730 729 728 728 729 731 731 731 730 727 725 724 724 722 720 719 721 721 722 724 726 728 731 734 736 739 741 742 745 748 753 756 758 761 765 768 772
749 752 754 757 759 761 762 763 763 764 764 765 765 765 766 766 765 765 764 763 763 764 764 763 762 760 759 757 756 753 751 750 749 748 746 746 744 742 739 737 735 733 731 730 729 728 727 726 726 725 723 723 725 727 728 729 727 724 723 722 721 719 717 717 717 716 717 719 720 722 726 729 732 734 736 739 741 744 747 749 751 754 757 760 765
749 751 753 757 759 760 761 762 762 763 763 764 764 764 765 765 764 763 763 762 762 762 761 760 759 758 757 755 753 751 748 746 746 744 742 742 740 738 736 733 729 728 726 725 723 722 721 720 720 719 718 719 721 722 723 725 723 720 721 720 717 715 715 715 714 712 713 715 716 719 721 723 727 730 733 735 737 740 742 744 746 749 751 754 759
748 750 754 757 759 760 760 761 761 762 763 763 763 764 764 764 763 762 761 761 761 760 759 758 757 755 754 752 750 748 746 743 742 741 739 738 736 734 732 728 724 722 721 719 717 716 715 714 713 714 714 715 716 717 718 719 718 717 718 716 712 711 713 713 711 709 709 710 712 714 716 718 721 725 728 731 734 737 739 742 744 745 748 751 754
748 752 755 758 759 759 759 760 760 761 762 762 763 763 763 762 761 760 760 760 759 759 758 757 755 753 752 750 747 745 743 740 738 737 735 733 732 730 727 723 720 717 715 713 711 709 708 708 707 708 708 709 709 710 711 712 712 713 712 709 707 709 711 711 709 708 706 706 708 710 711 714 716 719 724 728 731 734 738 740 742 744 746 747 750
750 754 756 757 758 758 759 759 759 760 760 761 761 761 761 761 760 759 759 759 758 757 756 755 753 751 749 747 745 742 740 738 735 733 731 728 727 725 722 718 716 713 709 707 705 703 702 701 701 702 703 703 703 703 704 704 705 705 703 702 704 707 708 708 709 708 704 703 704 706 708 710 713 716 720 725 728 732 736 738 740 743 745 747 748
752 755 756 757 757 757 758 758 758 759 759 759 760 760 759 759 759 758 758 758 757 757 755 754 752 749 747 745 742 739 737 734 732 729 726 724 721 719 715 712 710 708 704 701 699 697 696 695 695 695 696 696 696 697 697 697 697 696 696 697 700 703 705 707 709 707 703 701 701 703 704 707 710 714 718 722 725 728 732 736 739 742 746 749 749
753 755 756 756 756 756 757 757 758 758 758 758 758 758 757 757 757 758 758 757 757 756 754 752 750 747 745 741 738 736 733 730 728 725 722 719 715 712 709 706 704 702 699 695 693 691 690 689 689 689 689 689 689 690 690 690 689 688 690 693 695 698 701 704 706 705 701 700 700 701 702 704 707 711 715 719 723 726 730 734 737 740 744 747 749
753 754 755 755 755 756 756 757 758 758 757 757 757 756 756 756 756 757 757 756 755 754 752 750 747 745 742 739 735 732 730 726 723 720 717 714 710 707 704 701 699 696 693 689 687 685 683 682 682 683 683 683 683 683 683 682 682 683 685 688 691 693 696 699 701 701 699 698 699 700 701 704 706 709 713 717 721 725 728 732 736 739 742 745 749
752 753 753 754 755 756 756 757 757 757 756 756 755 755 755 755 755 756 755 755 754 752 750 747 745 742 739 736 733 729 726 723 719 715 712 709 705 702 699 695 692 689 686 682 679 677 676 675 675 675 676 676 676 677 677 677 678 679 680 682 685 688 690 693 696 696 695 695 696 698 700 704 707 710 713 716 720 723 726 729 734 738 741 743 748
751 752 753 753 755 756 756 756 756 755 755 755 754 754 754 754 754 754 754 753 752 750 748 745 743 740 736 733 730 727 723 719 715 711 707 704 700 696 693 688 684 680 677 673 671 669 668 667 667 667 668 669 671 672 672 673 673 674 674 675 678 681 684 687 690 691 691 692 694 696 700 703 707 710 714 717 720 723 725 727 732 737 741 743 748
750 751 752 753 754 755 755 754 754 754 754 754 753 753 753 753 753 752 752 751 750 748 746 743 741 738 734 731 728 724 719 715 712 708 703 699 694 690 686 681 676 672 668 665 664 663 661 660 660 661 663 665 666 667 668 668 668 668 667 668 672 676 679 683 686 688 689 689 691 695 699 703 707 710 713 716 719 722 725 727 730 736 741 744 748
749 750 751 752 753 754 754 753 752 752 753 753 752 752 752 751 751 750 750 749 748 747 745 742 739 736 733 729 726 721 716 711 708 704 700 694 690 685 680 675 670 665 661 659 658 658 656 655 654 655 657 660 662 663 664 664 663 662 662 663 667 672 675 678 682 685 685 686 689 693 697 702 707 710 713 716 720 723 725 727 730 736 741 744 747
748 749 750 751 752 752 751 750 751 752 752 752 752 752 751 750 750 749 749 748 747 746 744 741 738 735 731 727 724 720 714 709 704 700 695 690 684 679 674 669 664 659 655 653 653 652 651 650 650 651 653 656 658 659 660 660 659 657 658 660 664 667 671 675 679 681 683 685 687 691 696 701 707 710 712 716 720 724 727 729 731 736 740 743 747
747 748 749 750 750 750 749 749 750 751 751 752 752 752 751 750 749 748 748 747 745 744 742 739 736 733 730 725 721 716 712 706 701 696 691 685 680 674 669 665 660 655 650 648 646 645 645 645 646 647 650 652 654 655 656 657 656 655 655 659 662 664 668 672 676 679 681 685 688 691 695 700 705 710 712 715 719 725 728 731 734 737 739 742 746
746 747 749 750 750 749 749 748 749 750 750 751 752 752 750 749 748 747 747 745 744 742 740 737 734 731 728 723 719 713 708 703 699 693 688 682 677 671 666 662 658 652 648 645 643 641 642 643 643 645 647 649 650 652 653 654 654 653 654 657 661 663 666 669 673 677 679 683 688 693 697 701 706 710 713 715 719 724 727 731 735 737 740 743 747
747 748 749 749 749 749 748 748 748 749 749 750 751 750 749 748 747 746 745 744 743 741 739 736 733 729 725 721 717 712 706 701 697 691 685 680 674 669 664 661 657 652 648 645 643 641 641 642 643 644 646 647 648 650 651 652 652 653 654 656 659 662 665 668 672 676 679 683 688 692 698 703 707 711 715 717 720 723 727 732 735 736 739 743 748
747 748 748 748 748 748 747 748 748 748 748 749 750 749 748 747 746 745 744 742 741 739 737 735 732 728 723 719 715 710 705 700 695 690 685 679 673 668 663 659 656 652 649 646 644 642 642 643 644 645 646 647 647 648 650 651 652 653 655 657 660 663 667 669 672 676 680 684 688 693 698 704 707 711 715 719 722 725 728 732 735 736 738 743 748
747 747 747 747 747 748 748 748 748 748 748 749 748 747 747 746 746 745 743 741 740 738 735 733 730 726 722 718 714 709 704 699 695 690 685 679 674 668 664 660 656 653 651 649 647 645 644 644 645 646 648 649 649 650 651 652 653 654 655 658 661 664 668 671 673 676 680 685 689 695 700 705 708 711 714 718 722 726 729 732 736 738 740 743 746
747 747 746 746 748 748 749 749 748 748 748 747 746 746 746 745 745 744 742 741 739 738 735 733 729 726 722 718 714 708 703 699 695 690 685 681 676 670 666 663 660 657 654 651 649 647 647 647 647 648 650 650 651 653 653 654 654 655 657 659 661 664 668 672 674 678 682 687 691 696 701 706 710 713 716 718 722 726 729 733 737 741 744 745 744
746 746 746 747 748 748 748 749 748 747 747 746 746 746 746 745 745 743 741 740 738 737 735 733 729 725 721 717 713 708 704 700 696 691 687 682 678 673 670 667 664 660 658 655 653 651 651 650 650 651 652 653 653 655 656 656 657 658 660 662 664 666 669 672 676 679 684 689 694 698 702 707 711 714 717 720 724 728 732 736 740 744 746 745 743
745 746 747 747 748 748 748 748 747 747 746 746 746 746 746 745 744 742 740 739 738 736 735 732 729 726 722 718 714 709 705 700 696 692 688 684 680 676 673 670 667 665 662 660 658 656 655 654 654 654 655 655 656 657 659 660 661 662 663 666 668 671 672 675 679 683 687 692 697 701 704 708 712 716 718 721 724 728 732 738 742 744 745 744 744
745 746 747 748 747 748 747 747 747 747 747 746 745 745 745 744 742 741 739 738 737 736 734 732 730 727 724 720 715 711 706 701 697 694 691 687 684 680 677 674 672 669 667 665 663 661 660 659 659 659 659 659 660 661 663 664 665 667 668 670 672 675 677 680 683 687 691 695 699 703 707 710 714 717 720 723 725 728 733 740 743 744 743 744 746
746 747 747 747 747 747 747 746 746 746 746 746 745 744 744 742 741 740 739 737 736 735 733 732 730 728 725 722 718 713 709 705 701 698 695 692 688 685 682 679 676 674 672 670 669 667 665 664 663 663 663 664 664 665 667 668 669 671 673 675 677 679 682 684 687 691 694 698 702 705 709 712 715 718 722 725 727 730 735 741 744 745 744 745 749
747 747 746 746 747 747 747 746 746 746 746 746 744 743 743 742 740 740 738 737 736 735 733 732 730 728 726 724 721 717 713 709 706 703 699 696 693 690 687 684 681 679 677 675 674 672 671 669 668 668 668 669 669 670 671 673 674 676 678 680 682 684 686 689 691 694 697 701 704 708 711 715 718 721 725 728 730 733 738 743 745 745 746 749 753
747 747 747 747 747 746 746 746 746 745 746 745 744 743 742 741 739 739 738 736 736 735 733 732 730 728 727 725 723 719 716 712 709 706 703 700 698 695 692 689 686 684 682 680 679 677 676 675 674 674 673 674 675 675 676 678 679 681 683 685 687 689 691 693 696 698 701 704 708 711 715 719 723 725 727 730 733 737 742 745 746 748 750 753 756
747 747 747 747 746 746 746 746 745 745 745 744 742 742 741 739 738 737 736 735 734 734 733 732 730 729 727 726 724 721 718 715 713 710 707 704 702 699 697 694 691 689 687 686 684 683 681 680 680 679 679 679 680 681 682 683 685 686 688 690 692 694 696 698 700 703 706 708 711 715 719 723 727 730 731 734 738 742 745 747 749 752 755 757 759
746 746 746 746 746 746 746 745 745 744 743 742 741 740 739 738 737 736 735 734 733 733 732 731 731 729 728 726 725 723 721 718 715 713 711 709 706 704 701 699 697 694 692 691 689 688 687 686 685 685 685 685 686 687 688 689 690 691 693 695 696 699 701 703 705 708 710 712 714 718 722 727 730 733 735 739 743 745 747 749 753 756 758 760 762
746 746 746 746 746 746 746 745 744 744 743 743 742 741 739 738 737 735 734 734 733 732 731 731 730 729 728 727 726 725 723 721 719 716 714 712 710 708 706 704 702 700 697 696 695 694 693 692 692 691 691 692 693 693 694 695 696 697 698 699 701 703 706 709 710 712 715 716 718 721 725 729 732 735 739 743 746 748 750 753 756 758 759 761 764
747 747 746 746 746 745 745 745 744 743 743 743 742 741 740 738 737 735 735 734 733 732 731 730 730 730 729 728 727 726 724 723 721 719 717 715 714 712 710 708 707 705 703 702 700 699 699 698 698 697 698 698 699 700 701 702 702 703 704 705 706 708 711 713 715 717 719 720 722 725 729 732 735 739 742 746 749 751 753 756 758 760 761 763 766
749 748 748 748 747 746 745 745 744 744 744 743 743 742 741 739 738 737 736 734 733 732 731 731 730 730 729 728 728 727 726 724 723 722 721 719 717 716 714 713 711 710 709 707 706 705 705 704 704 704 704 704 705 706 707 708 708 709 710 711 712 714 716 718 720 722 724 726 727 730 734 737 740 744 747 750 753 756 757 759 761 762 763 765 767
751 751 751 750 749 748 748 747 746 745 745 745 744 743 742 741 740 739 737 736 735 734 733 732 732 731 730 729 729 728 727 726 725 724 723 722 721 719 718 716 715 714 713 712 712 711 711 710 710 710 710 710 711 712 713 714 715 716 717 718 720 721 722 724 725 727 730 732 733 736 739 742 746 749 752 755 758 759 761 762 763 764 765 767 769
754 754 754 753 752 752 751 750 749 748 747 747 746 746 744 743 742 741 740 739 738 737 736 735 734 733 732 731 730 729 729 728 727 726 726 725 724 723 721 720 719 718 717 717 717 716 716 716 715 715 715 716 716 717 718 719 720 721 722 724 726 727 728 730 731 733 735 737 739 741 744 747 750 754 757 760 761 762 763 764 765 766 767 768 770
758 757 757 756 756 755 754 753 752 751 750 749 749 748 747 746 745 744 743 742 741 740 739 738 737 736 734 733 732 731 731 730 729 729 728 727 727 726 725 724 723 722 721 721 721 721 721 720 720 720 721 721 721 722 723 724 725 727 728 729 731 732 734 735 736 738 740 742 744 747 750 752 756 759 761 763 764 764 765 765 766 767 769 770 772
761 760 759 759 758 757 757 756 755 754 753 753 752 751 750 749 749 748 746 745 745 744 743 741 740 739 738 736 735 734 733 732 731 731 730 730 729 729 728 727 727 726 726 725 725 725 725 725 725 725 726 726 727 727 728 729 731 732 733 734 735 737 738 739 741 742 744 747 749 752 755 757 760 762 764 765 766 766 766 767 768 769 771 772 774
Wind_Speed
22 21 21 20 19 19 19 19 17 16 15 15 15 14 13 12 12 12 13 13 14 15 16 16 16 17 17 17 18 18 19 19 19 19 19 20 20 21 20 21 22 22 21 22 23 24 24 24 24 24 24 24 26 26 26 27 28 29 30 30 31 30 29 26 16 14 23 24 21 25 21 13 12 20 28 28 28 27 26 28 30 32 35 35 36
23 22 21 21 20 19 19 18 18 16 16 15 15 14 13 12 13 13 14 14 15 15 16 16 17 17 18 18 19 19 19 20 20 19 20 21 21 22 21 21 22 22 22 22 22 23 25 25 25 25 24 25 26 27 27 27 27 28 30 30 31 32 31 30 22 15 18 21 22 23 20 14 13 17 25 28 29 27 25 26 30 34 36 37 38
23 21 21 21 20 19 18 18 17 16 16 15 14 14 13 13 13 13 14 15 15 16 16 17 17 18 18 19 19 20 19 19 20 20 21 22 22 23 22 22 23 23 23 23 23 24 25 26 25 25 25 25 26 27 27 28 28 28 29 29 29 31 32 32 28 22 19 20 23 24 20 16 17 21 26 29 30 29 25 25 30 35 37 38 38
22 21 21 20 20 20 19 18 17 16 16 15 14 13 13 13 13 14 15 15 15 16 16 17 18 18 20 20 20 20 20 20 21 21 21 23 24 24 24 24 24 24 24 24 24 25 26 27 26 25 25 26 26 27 27 28 28 28 29 29 29 30 32 33 33 29 23 20 24 28 22 18 21 27 29 29 30 30 28 27 31 34 36 37 38
22 21 20 20 20 20 19 18 17 16 15 14 13 13 13 13 13 14 15 15 16 17 17 17 18 19 20 20 20 20 20 21 21 22 22 23 24 25 25 25 25 25 26 25 25 25 26 28 28 26 26 26 26 25 25 27 28 29 29 29 29 30 30 32 33 32 28 24 24 26 23 20 23 29 32 32 29 26 26 28 31 31 30 33 37
22 21 20 20 20 19 18 18 16 15 15 14 13 13 13 13 14 14 15 15 16 17 17 17 18 19 20 20 21 21 21 22 23 23 23 23 24 26 26 26 26 26 27 27 27 27 27 28 28 28 27 27 27 27 25 25 27 29 31 30 28 29 29 30 30 31 31 29 25 23 22 24 27 27 31 35 32 29 28 26 26 27 27 31 35
21 21 20 20 19 19 18 17 16 14 14 13 13 13 12 13 13 14 14 15 16 16 17 18 19 20 20 21 22 22 22 23 24 24 24 24 25 26 26 27 27 27 27 28 28 29 29 28 29 30 29 28 28 29 29 28 26 27 30 32 30 29 28 28 28 28 29 28 26 23 22 27 29 25 29 36 33 31 32 29 25 25 28 32 35
21 20 20 19 18 18 17 16 15 14 13 12 12 12 12 13 13 14 14 14 15 17 17 19 20 20 21 22 23 23 23 24 24 24 24 24 24 25 25 26 27 27 28 29 29 29 29 30 30 30 31 31 29 29 30 31 29 27 27 29 30 31 30 27 26 26 27 25 25 24 23 26 28 24 26 32 30 28 33 35 32 31 31 32 34
20 19 19 18 17 17 15 15 14 13 12 11 11 12 13 13 13 13 14 15 15 17 18 19 20 20 22 23 23 24 24 24 23 24 24 24 24 25 25 25 26 26 27 28 29 29 29 30 31 31 32 33 34 33 32 32 32 31 29 27 26 27 30 29 26 25 26 24 23 23 23 24 27 26 26 30 30 30 35 36 33 32 32 29 30
19 19 17 17 16 14 13 13 12 11 11 11 12 12 13 13 13 13 14 15 16 17 17 18 18 20 21 23 24 25 25 24 24 24 26 27 27 28 29 30 30 29 29 28 28 28 29 29 30 31 32 34 36 38 38 37 37 37 37 35 30 26 26 26 25 25 25 23 22 23 22 23 28 31 30 32 33 34 37 35 29 29 28 23 22
18 18 16 16 15 14 13 12 11 11 11 12 12 12 12 13 13 14 14 15 16 16 16 16 17 19 21 23 24 25 26 26 26 27 28 29 30 31 32 32 32 31 31 30 30 29 30 30 30 31 31 33 34 37 39 40 40 41 42 42 40 36 30 26 24 25 24 23 22 23 23 24 31 36 34 33 34 36 39 37 32 32 30 23 19
17 16 15 15 14 14 13 11 11 11 11 12 12 12 13 13 13 14 15 15 15 16 16 16 17 19 21 23 24 26 27 26 27 28 29 30 31 32 33 33 32 32 31 31 31 31 31 31 31 31 32 32 31 32 35 37 38 40 43 45 46 45 41 35 29 26 24 23 23 26 26 25 29 34 35 35 36 36 36 36 35 35 33 28 25
16 15 15 14 13 13 11 11 10 10 10 11 11 12 12 12 13 14 15 15 15 15 15 16 18 20 22 24 25 26 27 27 28 29 30 32 31 32 33 33 32 32 32 32 32 33 33 33 32 33 33 33 33 32 32 34 35 35 39 44 48 48 48 45 41 34 29 26 26 28 29 27 27 32 37 38 38 37 34 33 34 35 34 33 32
15 15 14 13 12 11 10 9 8 9 10 11 12 12 12 13 14 14 15 15 15 14 15 16 19 21 23 25 26 27 27 28 29 30 31 33 34 35 36 35 33 32 33 33 34 34 35 34 34 34 33 33 34 33 31 31 32 31 32 37 43 48 48 48 48 45 38 32 30 30 31 32 34 38 41 42 42 43 42 39 39 38 36 33 31
14 13 13 12 10 8 7 7 7 8 10 11 11 12 12 14 15 14 15 16 13 12 15 17 19 21 24 26 27 28 28 28 30 31 33 34 35 36 38 37 36 35 34 34 34 35 36 36 36 36 35 34 35 35 33 32 32 31 31 30 34 40 42 43 44 45 43 39 37 34 32 33 35 38 42 45 46 48 49 47 44 40 33 26 24
14 13 11 10 8 6 5 6 7 9 10 11 11 11 12 14 14 14 15 15 13 14 16 18 19 22 25 27 28 29 29 29 30 31 32 33 34 35 36 35 36 36 35 34 34 35 36 38 39 38 38 37 36 36 37 37 37 37 35 33 31 32 35 38 38 40 42 43 42 40 36 32 31 33 40 45 47 45 43 38 35 33 28 22 21
12 12 11 9 7 5 5 6 8 10 10 10 11 11 12 13 14 14 15 14 13 15 17 19 20 23 26 27 28 29 29 28 29 31 32 33 34 35 35 34 35 35 36 35 35 35 36 37 38 38 38 38 37 37 38 39 40 40 37 34 33 31 32 33 34 36 38 40 43 45 42 37 34 35 40 45 48 46 39 32 32 35 30 20 17
9 9 9 7 6 4 4 6 8 9 9 9 10 10 12 13 15 16 15 13 13 15 18 20 22 24 26 27 28 29 30 30 30 32 33 34 35 36 36 36 35 35 35 35 35 36 36 36 37 38 38 37 36 36 37 38 40 41 37 33 32 32 31 29 29 30 32 34 40 45 44 40 36 37 42 46 49 48 42 37 38 39 33 23 19
9 7 7 5 2 2 4 6 6 7 8 8 9 10 12 14 16 16 14 12 13 16 19 21 23 25 27 28 29 30 31 31 30 30 32 32 33 34 36 36 36 35 35 35 35 36 36 36 37 38 40 39 38 37 37 37 39 40 36 32 30 31 31 29 27 28 28 31 37 41 42 40 36 35 40 46 50 51 48 45 44 41 34 28 26
7 7 7 3 2 3 4 5 4 5 7 8 9 11 13 14 14 13 12 13 15 17 19 22 24 26 27 28 28 29 29 29 29 29 31 33 35 35 35 35 35 35 35 34 34 34 35 35 36 37 39 39 40 42 42 42 42 41 37 34 31 29 28 27 26 29 30 30 35 38 38 38 36 35 40 46 50 52 49 45 44 43 36 31 32
10 7 3 2 3 3 3 3 4 6 7 9 10 12 13 14 13 12 13 14 15 18 22 23 24 26 27 27 28 28 28 29 30 31 32 34 36 37 37 36 35 36 35 34 34 34 33 34 35 36 37 37 39 42 44 46 48 47 45 45 41 34 28 26 25 27 30 30 32 34 34 35 35 36 41 46 48 48 44 41 42 43 39 36 36
8 3 2 3 2 2 2 3 5 6 7 8 10 11 12 13 12 12 14 16 17 20 22 23 24 25 26 27 27 28 29 30 31 32 33 35 36 37 39 39 37 36 34 33 33 34 33 34 35 35 36 37 38 40 42 45 48 50 52 54 50 45 41 35 29 25 27 28 28 30 30 31 31 33 39 43 44 43 41 40 40 39 38 38 39
5 2 2 2 1 1 3 4 5 6 7 8 10 11 11 10 11 13 15 17 19 21 22 23 24 25 27 27 27 28 30 30 31 32 33 35 37 38 39 40 39 37 35 33 33 33 34 35 35 36 37 39 39 40 41 43 47 49 51 53 51 50 48 40 32 26 25 26 26 27 27 29 31 32 36 38 39 39 37 36 37 36 33 32 33
4 3 2 2 1 3 4 5 6 7 8 10 11 11 9 8 10 12 13 15 17 19 21 23 23 24 26 27 27 28 29 29 30 32 33 36 38 38 38 38 38 38 37 36 36 35 36 36 36 37 38 40 41 42 43 44 47 49 49 48 48 48 45 37 31 27 25 25 25 25 26 29 32 34 35 35 34 35 34 32 32 33 32 30 29
5 3 1 2 4 4 4 6 7 8 8 10 10 9 7 8 9 10 11 13 16 18 21 23 23 23 24 25 26 28 29 29 30 31 33 36 36 36 36 36 37 37 37 38 39 38 38 39 39 39 39 40 41 43 44 46 47 48 48 46 44 43 39 34 30 26 25 24 24 24 24 27 30 33 35 35 34 34 33 30 28 28 27 27 24
5 3 2 4 5 4 5 6 7 7 8 9 10 9 8 8 9 9 11 14 16 18 21 22 22 23 23 23 25 28 29 30 30 31 32 33 33 34 35 36 38 39 39 41 43 42 42 42 43 43 42 42 42 41 40 40 40 43 46 46 44 40 35 32 29 28 27 25 25 25 25 26 28 31 34 35 35 34 34 32 30 27 27 28 26
5 4 3 4 5 6 6 5 5 7 9 10 11 10 9 8 8 9 12 15 16 18 20 22 22 23 22 23 25 27 28 29 30 30 31 32 32 35 37 39 40 39 38 39 39 38 39 40 42 43 43 43 42 39 37 36 35 36 40 43 42 38 33 32 33 32 30 28 27 27 27 29 31 32 33 34 34 33 34 35 33 31 30 32 31
5 6 4 4 6 8 7 4 5 8 9 10 11 10 8 7 7 10 12 13 14 17 21 23 23 23 23 24 26 27 28 28 29 31 34 36 38 40 41 40 39 37 35 35 33 32 34 35 36 37 39 39 37 35 35 36 36 36 36 37 36 34 32 33 32 31 31 31 31 31 31 33 33 33 34 33 33 33 34 36 36 35 35 36 33
6 6 4 5 8 8 6 5 7 9 9 11 12 10 9 9 9 10 10 10 13 18 23 25 25 25 26 28 29 29 30 32 34 36 39 41 41 41 40 40 38 37 36 34 32 31 30 29 27 28 30 30 29 28 29 32 32 31 31 30 30 30 31 31 29 28 32 35 36 35 35 34 32 33 34 32 31 32 34 37 39 38 36 35 32
9 7 3 7 10 6 5 6 8 9 10 12 13 12 12 11 9 9 10 10 15 23 26 26 26 26 27 29 31 32 33 36 38 39 39 39 38 37 36 34 33 33 33 31 31 30 26 22 22 23 23 23 23 23 25 25 23 21 24 26 28 30 30 30 31 33 34 37 38 38 37 35 33 33 34 33 31 31 33 37 39 38 36 35 31
6 5 6 9 8 5 7 10 11 10 10 11 13 14 13 11 9 11 10 9 16 27 29 26 25 25 27 30 33 34 34 36 37 36 35 35 34 33 31 28 27 26 23 23 25 26 22 19 18 19 20 21 21 22 23 21 19 20 23 26 28 31 32 32 34 36 36 35 36 36 37 37 35 34 34 35 34 33 34 35 35 35 35 36 33
4 8 8 9 8 8 9 10 11 10 9 10 12 13 13 12 11 12 10 9 16 27 29 26 25 27 29 30 32 35 36 35 34 33 32 31 30 28 25 22 22 20 15 14 14 15 17 17 16 18 19 20 20 21 21 20 20 23 25 25 26 30 34 36 36 37 38 37 35 34 34 34 34 33 34 35 36 34 33 33 33 34 34 33 31
6 8 7 7 7 7 7 9 11 10 8 9 10 12 12 11 12 12 10 11 17 24 27 26 26 29 31 31 32 34 34 33 32 31 30 29 27 23 19 16 16 15 10 3 2 4 7 9 11 15 18 19 20 20 21 21 23 25 26 26 26 28 33 36 37 37 37 38 37 35 34 33 33 32 32 33 34 33 31 30 31 33 33 30 29
5 5 4 4 4 6 9 11 12 9 7 8 10 13 11 12 14 14 11 11 16 21 25 27 28 30 31 32 34 35 33 32 31 30 29 29 25 19 16 14 12 12 13 11 9 8 6 4 4 7 11 15 18 20 21 22 22 24 25 26 27 28 30 34 35 35 35 36 35 35 35 35 34 34 32 31 30 29 29 29 29 30 31 30 29
2 2 1 4 5 6 12 14 12 11 9 8 12 14 11 12 15 15 13 11 13 17 23 28 31 31 30 31 34 35 32 31 31 29 29 29 25 21 20 20 17 15 16 17 16 14 13 10 7 5 5 8 12 16 18 20 22 24 26 28 30 30 29 30 32 33 34 34 34 34 35 34 34 35 34 32 30 29 28 28 27 27 29 30 30
1 3 4 4 4 8 13 13 12 13 12 11 11 11 10 12 15 16 14 12 12 15 20 26 30 31 29 30 35 35 32 30 31 29 28 28 26 24 22 21 19 19 19 19 18 17 16 13 11 9 7 8 9 11 14 17 20 22 25 28 31 32 31 30 31 33 33 32 33 35 34 33 32 32 32 31 31 29 28 28 28 27 27 28 30
2 6 9 10 10 12 12 11 11 15 16 12 9 11 13 14 15 15 12 11 11 13 17 23 28 29 29 31 35 35 32 29 29 28 28 28 27 25 22 20 20 20 20 20 20 19 18 16 14 13 12 12 13 14 15 18 20 22 24 26 27 29 31 32 33 34 33 32 32 33 34 33 32 31 31 31 30 29 28 28 28 27 27 29 30
4 6 10 12 14 12 9 10 13 15 15 10 9 12 14 14 14 13 11 10 10 11 13 19 23 25 26 30 35 35 31 29 28 28 28 28 27 25 23 22 22 21 20 21 21 21 21 21 19 18 17 17 18 18 19 20 21 23 25 26 26 27 30 31 32 32 33 33 33 32 32 31 30 30 31 31 31 31 30 29 28 28 29 29 28
6 7 9 13 14 10 9 11 12 14 15 13 9 11 13 14 13 10 9 10 10 10 11 15 19 22 25 29 33 34 31 28 28 27 26 26 26 26 24 23 22 22 21 21 22 22 22 22 22 22 22 21 21 21 21 22 22 23 25 27 28 29 30 31 31 31 32 32 31 31 31 30 30 31 31 31 32 32 31 29 28 28 28 28 27
9 9 11 13 11 8 10 12 9 13 17 14 11 13 13 14 12 11 9 9 10 10 10 12 15 19 24 29 32 33 30 27 26 26 25 24 25 25 24 23 22 22 22 21 21 22 23 23 23 24 24 23 23 23 23 23 24 25 25 27 27 28 29 30 31 31 31 31 30 30 30 30 31 32 31 31 32 33 32 29 28 28 29 29 28
10 10 11 12 10 10 12 10 9 13 15 11 10 11 12 11 12 12 9 8 9 11 11 12 14 17 22 26 30 31 29 26 26 26 25 24 24 24 24 24 23 23 23 22 21 22 23 23 24 25 25 25 25 26 26 25 26 27 27 27 27 28 29 30 30 31 31 31 30 30 30 31 33 33 32 32 33 33 31 29 28 30 30 30 29
9 9 10 11 11 10 9 8 10 13 12 8 6 9 11 7 9 11 9 7 8 8 10 12 14 16 18 21 26 29 28 26 26 26 25 25 24 23 23 24 24 23 23 23 22 23 24 24 24 25 26 26 26 27 27 27 28 29 29 29 28 29 29 29 30 31 31 32 32 32 32 32 33 33 33 33 32 31 30 29 29 30 30 29 29
8 8 7 8 9 8 8 9 11 12 9 7 9 11 12 7 5 7 7 6 5 6 8 10 12 14 15 17 21 26 27 26 25 25 25 25 24 24 24 24 24 24 24 23 23 24 25 27 27 27 27 27 27 27 28 28 29 30 30 30 29 29 28 29 30 31 32 33 35 35 34 34 32 32 33 33 32 31 31 30 30 29 28 28 28
6 7 7 6 7 8 9 11 11 9 8 9 10 9 10 9 6 5 5 5 5 5 5 7 9 12 13 13 16 20 23 25 25 24 24 24 24 24 25 25 25 25 26 25 25 25 27 28 29 29 29 29 29 29 30 30 30 31 31 31 31 30 29 29 30 31 33 35 36 36 35 34 33 32 33 33 32 32 31 30 29 27 26 26 26
7 9 10 8 7 6 7 8 8 8 8 9 12 12 12 13 10 6 5 5 6 6 4 5 6 9 12 12 12 14 18 22 24 23 23 23 23 23 24 25 25 27 27 26 26 27 28 29 30 31 31 31 31 32 31 31 31 32 32 33 33 32 31 31 31 32 34 35 36 35 35 35 34 34 33 32 31 31 29 28 27 26 26 26 25
11 12 14 13 10 8 6 6 7 8 7 9 10 10 12 14 13 8 4 4 6 7 6 5 5 7 10 12 11 11 13 17 21 22 22 22 22 21 21 22 24 25 26 27 27 27 28 29 30 31 31 32 33 33 33 33 33 34 34 35 35 35 34 34 34 34 34 35 36 35 34 34 33 32 31 30 29 28 27 26 25 26 26 26 24
15 16 18 18 15 14 13 12 12 12 10 9 10 13 16 18 18 15 12 10 8 7 7 6 7 8 9 10 11 10 10 13 17 19 21 21 21 20 19 20 22 23 24 25 26 27 27 28 30 30 31 32 32 33 33 34 34 35 35 35 35 35 34 34 34 34 33 33 34 34 33 31 30 29 28 28 26 25 24 24 24 25 25 25 24
17 17 18 19 19 18 18 17 16 17 18 18 19 21 23 23 22 21 22 22 21 15 8 8 8 8 7 8 9 10 9 10 13 15 17 19 20 20 19 18 20 22 23 23 23 25 26 27 28 29 30 30 31 32 32 33 33 34 33 33 33 33 33 33 33 32 32 32 32 32 31 30 28 28 27 26 24 24 24 24 24 24 24 24 23
18 17 18 19 19 19 19 18 18 19 21 21 20 22 24 24 23 23 23 23 24 24 19 12 10 9 8 9 10 10 10 9 10 11 14 15 17 19 20 19 18 19 21 21 22 23 24 25 26 27 28 29 30 30 30 31 31 31 31 30 30 29 29 30 30 29 29 29 30 29 29 28 27 27 25 24 23 23 24 24 24 23 23 23 23
19 19 18 18 18 18 18 18 18 18 20 20 19 21 23 23 22 24 24 23 23 25 24 22 18 15 13 12 11 10 10 11 10 9 10 12 13 15 17 18 19 18 18 18 20 21 23 24 25 26 27 28 29 29 29 29 29 29 28 27 26 26 26 26 26 26 25 25 25 25 25 25 25 24 23 23 23 23 23 23 23 22 22 22 22
19 19 19 19 19 18 18 19 19 19 20 20 19 20 21 22 21 22 23 23 23 22 23 23 23 22 21 20 16 12 10 11 12 10 9 9 10 11 13 15 17 18 17 17 17 18 20 23 24 25 25 26 26 26 25 25 24 24 23 23 23 23 23 24 24 24 22 21 20 22 23 23 23 23 22 22 22 22 22 22 22 21 21 21 20
Wind_Direction
191 193 194 196 198 200 203 204 205 207 209 213 217 223 230 235 241 248 253 259 264 267 270 272 274 277 280 282 282 280 280 280 279 276 275 274 273 273 273 272 273 273 272 270 269 269 265 261 260 257 254 250 246 244 242 240 238 236 235 231 229 230 228 227 230 242 247 245 240 244 244 230 202 185 180 174 172 182 194 196 196 194 193 195 198
191 193 194 196 199 201 203 205 206 209 211 214 219 224 230 237 242 249 254 258 262 266 268 271 274 277 279 280 281 280 279 279 280 278 276 274 272 272 272 271 271 272 274 273 272 272 271 266 262 258 255 252 248 244 240 239 237 235 233 229 227 228 226 225 227 233 242 240 241 247 239 219 209 200 189 178 173 181 192 194 194 195 195 195 196
191 192 193 196 199 201 202 204 206 209 211 215 221 226 231 239 244 249 255 259 262 265 269 273 275 276 278 280 280 280 280 279 279 279 279 277 275 272 271 270 269 269 269 270 271 272 274 273 269 264 259 257 253 248 242 239 237 236 234 229 227 228 227 225 225 229 236 233 234 240 236 217 208 205 197 185 179 185 193 194 192 193 194 194 195
190 191 193 195 198 199 201 204 206 209 213 217 223 229 234 241 246 250 255 261 264 266 269 273 276 276 277 278 278 278 280 280 280 279 277 277 277 275 273 270 268 268 267 266 266 267 270 273 273 270 265 263 259 252 245 242 239 238 237 233 230 231 230 227 224 226 231 231 232 233 230 218 204 199 195 186 181 186 190 188 186 188 190 191 195
188 190 192 193 195 198 200 204 208 210 215 220 225 232 237 243 249 253 257 261 265 268 272 273 274 276 276 276 278 279 281 282 282 281 278 276 276 275 274 271 269 269 268 267 266 265 265 268 271 271 267 266 266 261 252 245 242 241 241 238 233 232 231 228 226 225 226 227 229 228 227 217 201 193 189 181 174 178 182 181 181 182 184 187 194
187 190 192 192 193 197 200 204 210 212 217 222 228 235 241 246 250 254 259 264 267 269 273 274 275 276 277 277 278 278 280 281 280 280 279 279 279 278 276 274 271 268 266 265 266 266 266 265 266 268 267 264 264 266 265 256 247 242 242 241 238 234 232 228 224 223 223 225 225 221 214 203 192 187 186 182 173 168 171 173 175 179 184 188 193
187 190 192 191 191 196 200 204 209 214 219 224 230 237 243 248 252 257 261 265 269 273 276 278 279 279 280 280 280 281 281 280 280 279 279 278 278 278 279 279 278 275 271 267 263 262 263 264 264 265 266 265 262 262 265 266 260 250 243 242 242 240 237 231 222 218 219 222 222 216 203 193 191 188 183 179 174 170 168 163 163 175 188 194 195
185 189 189 189 191 195 200 204 209 215 220 225 232 240 247 253 256 260 265 267 271 277 279 280 281 281 281 281 281 280 278 277 277 279 279 278 277 277 277 277 278 277 276 275 271 266 264 262 262 263 263 265 265 261 260 262 265 263 253 246 242 242 242 236 225 218 217 217 216 212 200 191 193 191 178 171 168 171 173 167 167 177 187 194 197
183 187 188 188 190 193 197 203 208 213 220 227 237 245 251 256 259 263 269 272 275 279 281 283 286 288 289 288 286 283 281 277 276 277 278 278 277 279 279 280 281 281 279 278 276 274 270 266 264 262 262 262 264 264 262 260 260 263 263 259 250 245 244 240 229 218 217 218 216 208 199 193 193 188 180 178 174 173 175 173 174 179 181 185 194
181 184 187 188 187 191 197 203 207 213 224 233 242 250 254 257 263 268 272 275 278 281 283 287 293 297 298 297 294 292 290 286 284 282 281 280 281 282 283 283 285 287 286 284 282 279 276 274 270 267 264 263 263 264 265 264 261 261 262 264 263 257 251 245 237 225 217 217 216 207 197 195 193 188 186 189 184 175 174 175 173 171 171 173 185
180 181 185 186 185 193 200 204 210 217 230 239 245 251 256 261 267 272 276 278 281 284 288 294 299 301 301 299 296 294 291 288 287 285 283 283 283 284 284 283 282 282 282 282 282 282 280 278 276 274 271 268 265 264 265 265 264 261 259 260 261 262 260 256 250 240 225 215 216 215 207 198 194 191 188 188 185 179 177 177 171 167 170 173 178
179 179 182 184 185 194 198 203 215 224 234 244 249 255 260 265 271 276 279 283 287 291 296 302 304 303 301 298 295 292 291 289 286 286 285 286 287 287 286 284 281 278 276 275 275 276 278 279 277 275 273 272 270 267 265 265 266 263 259 257 258 260 260 260 258 251 236 221 217 219 216 205 195 191 187 184 184 182 180 178 175 174 178 182 183
176 176 181 185 187 193 198 206 220 232 241 249 256 259 262 268 275 279 282 285 289 295 301 305 305 304 300 297 293 291 289 289 287 287 287 288 290 291 290 287 282 277 273 271 270 269 271 273 274 272 271 271 272 270 267 267 269 267 260 257 257 257 258 259 259 257 249 235 225 223 218 209 200 196 190 186 183 181 180 181 181 182 186 190 192
174 176 181 186 189 193 200 212 225 241 252 257 260 261 265 272 278 281 283 284 290 299 306 307 304 301 298 294 292 289 287 287 287 287 287 288 288 290 291 289 284 279 275 271 268 267 265 266 268 269 268 267 268 269 268 267 268 269 264 256 252 253 255 257 258 259 256 245 236 233 227 216 207 201 194 190 187 184 184 184 186 189 194 195 196
173 178 179 184 190 191 203 224 237 248 257 261 263 265 270 275 279 280 283 289 298 306 306 303 298 296 295 293 291 289 287 287 286 286 287 287 287 287 288 287 283 280 276 272 268 266 264 264 264 265 265 264 263 263 265 266 268 274 276 267 254 250 250 253 255 255 254 248 242 240 236 224 212 202 195 195 194 192 190 189 188 190 192 190 188
175 177 175 179 187 193 214 236 249 257 262 265 268 270 276 282 284 285 288 298 309 309 305 301 298 295 294 292 291 289 288 287 287 287 288 288 289 288 285 284 282 278 275 272 270 266 264 263 262 261 261 261 259 259 262 265 268 274 280 280 272 258 249 249 252 254 252 249 245 245 244 237 222 208 199 198 198 193 189 188 186 182 178 173 172
176 171 172 179 185 202 229 245 257 263 266 270 273 279 287 292 294 295 301 309 314 310 306 302 299 296 293 292 291 290 291 291 290 290 290 290 291 290 287 284 281 277 275 273 271 269 267 264 261 259 258 258 257 258 259 262 266 270 273 277 279 274 261 251 249 252 252 250 247 244 244 242 233 219 210 204 199 192 184 180 180 177 173 169 168
174 168 168 174 181 203 238 255 267 276 280 284 288 294 298 300 302 305 309 313 312 309 307 303 299 297 294 294 295 294 293 293 293 292 291 291 290 287 285 283 280 277 275 273 270 269 267 265 261 258 257 257 257 256 256 257 261 265 268 272 274 274 270 259 249 249 249 247 245 240 236 236 232 220 212 207 198 190 186 186 183 179 176 175 171
175 163 142 144 180 236 263 270 278 290 295 298 304 308 307 307 307 308 313 316 311 306 305 303 301 299 297 297 296 295 293 292 292 292 292 293 292 287 283 279 275 274 273 271 270 268 265 264 261 258 257 258 257 256 254 254 256 259 263 267 267 267 268 265 256 249 244 240 237 232 227 226 224 215 208 205 199 195 196 197 190 183 181 177 167
137 109 102 115 252 261 267 276 296 308 308 312 313 309 307 307 309 315 323 322 316 311 308 304 301 300 299 298 296 296 295 295 296 296 296 296 295 292 286 278 272 270 269 267 266 264 262 261 260 258 257 256 255 254 253 253 254 256 258 261 261 260 265 273 266 251 244 238 229 222 218 215 212 207 202 200 198 198 200 200 194 188 184 175 167
100 90 101 227 253 267 290 318 334 323 314 312 305 303 306 310 316 328 332 325 320 317 312 306 303 302 301 300 299 298 297 297 298 298 297 295 294 294 289 282 274 269 266 263 261 260 259 259 258 258 256 253 251 251 250 250 250 252 254 255 256 255 260 276 277 252 236 230 220 214 212 208 202 198 195 195 196 196 198 200 195 190 187 180 175
103 123 211 242 256 290 322 327 319 309 305 303 301 306 311 316 327 342 341 333 326 318 312 308 306 304 302 301 300 299 298 298 297 296 296 295 296 295 292 288 283 273 264 260 259 257 257 257 258 258 256 253 251 249 249 249 248 248 249 251 253 254 254 266 277 254 223 210 205 202 202 200 195 190 190 192 193 194 197 200 196 191 190 190 186
119 176 213 237 268 327 331 328 325 320 319 318 316 316 317 325 339 343 339 334 327 320 315 312 308 304 301 300 298 298 297 297 296 296 296 297 297 297 295 293 289 280 267 260 260 260 259 259 259 258 256 253 250 249 248 248 247 246 248 249 251 252 252 259 268 251 214 195 191 187 184 185 183 182 184 186 187 189 192 195 192 189 190 192 191
160 192 199 208 25 17 356 353 354 345 337 330 321 314 318 332 338 334 331 329 323 316 311 309 306 302 300 298 297 296 297 297 296 295 297 298 297 297 296 295 293 286 274 265 263 262 260 259 259 258 256 252 248 247 247 247 246 246 247 248 250 250 249 252 254 237 207 188 183 178 174 175 175 176 178 179 180 183 184 184 185 187 188 189 189
176 184 175 93 50 21 16 22 9 351 339 330 320 315 324 336 333 327 322 315 311 308 306 305 302 299 296 295 294 296 298 299 298 298 299 300 298 296 295 294 291 287 280 273 269 265 262 261 260 258 255 251 246 244 244 247 248 248 247 247 247 246 243 243 238 220 195 181 177 171 168 169 170 171 173 173 174 176 176 173 173 176 179 177 174
164 154 103 79 61 28 30 31 2 345 343 338 332 328 329 333 331 321 312 306 305 308 308 307 303 297 293 292 294 297 300 300 300 300 301 301 299 296 295 293 290 286 281 276 273 269 266 263 260 256 252 248 244 242 244 249 252 252 250 246 243 240 235 231 221 202 183 175 169 162 158 160 162 164 166 167 168 169 170 166 161 161 165 162 154
155 132 106 90 69 36 31 23 349 352 358 348 340 334 330 335 330 314 306 305 306 309 310 308 305 299 295 295 297 300 301 300 300 301 302 302 301 299 298 296 293 289 282 276 272 269 267 265 261 254 248 245 244 244 248 255 262 261 252 243 237 233 227 219 210 196 182 170 160 154 152 154 156 157 158 158 158 161 165 162 152 148 152 150 142
144 122 126 127 85 43 21 5 353 1 359 346 342 342 337 328 308 299 301 302 304 313 316 312 308 303 299 298 300 301 300 299 300 302 304 304 304 304 303 299 294 289 282 276 272 270 270 267 260 249 242 241 245 248 252 259 266 262 247 234 228 223 215 209 204 190 174 160 150 148 149 150 152 153 152 153 152 153 159 158 149 144 145 143 136
157 141 157 133 91 53 10 0 3 1 355 347 346 344 333 321 305 295 299 306 318 329 327 317 312 308 303 302 303 301 299 301 304 307 309 309 308 307 305 302 297 292 285 278 272 271 269 259 243 232 230 233 239 246 251 256 256 247 231 217 209 202 196 192 183 168 159 154 150 148 148 149 150 149 148 147 146 149 153 152 147 144 144 140 136
191 166 127 76 67 36 352 14 17 5 357 350 348 345 336 332 327 313 308 322 341 345 337 324 318 314 308 309 312 309 304 306 310 313 314 314 312 310 307 306 305 300 292 281 271 265 258 241 223 217 218 221 227 234 239 238 229 211 197 189 184 179 175 171 164 158 155 153 151 150 149 148 148 148 146 143 142 145 148 147 146 145 143 138 135
190 124 76 56 47 352 343 16 19 9 2 355 355 352 339 333 338 328 317 328 348 349 342 330 326 324 318 317 319 319 317 318 319 320 320 319 317 313 310 312 317 314 299 281 268 253 235 218 211 210 209 210 215 219 219 213 195 173 166 168 168 166 162 160 159 156 153 150 149 150 150 150 151 150 148 144 143 144 144 144 145 144 142 139 138
77 77 64 48 26 338 343 12 15 10 10 6 1 347 331 331 341 332 315 315 337 346 345 337 332 333 330 327 326 325 326 328 329 328 329 327 323 317 313 316 327 329 308 273 256 235 214 205 201 198 198 201 206 206 200 189 175 163 157 155 156 158 159 159 159 156 152 149 148 148 149 150 151 149 148 146 144 143 143 144 144 142 139 139 139
80 79 62 42 10 337 352 14 7 3 15 19 358 331 324 342 346 330 317 317 327 340 348 343 337 338 337 335 336 334 334 337 338 337 338 338 332 325 322 323 335 348 349 312 233 185 192 202 200 196 196 195 194 192 185 175 166 159 154 151 150 153 155 157 157 155 152 150 150 149 149 150 148 146 146 145 144 143 143 143 143 141 138 138 140
109 103 58 12 331 347 12 8 357 2 30 28 349 323 330 1 355 334 330 331 326 335 346 346 344 345 343 342 344 344 343 344 344 344 347 348 345 343 350 357 0 13 30 41 51 68 87 113 160 190 199 194 186 181 176 169 161 154 149 147 146 147 149 151 151 149 148 148 148 147 149 150 148 146 144 143 143 142 142 143 144 142 141 141 144
116 168 305 298 293 353 8 0 2 21 32 11 341 326 336 8 359 340 337 339 331 335 343 346 347 348 347 346 348 350 349 349 350 351 354 357 1 7 13 17 19 24 35 42 45 54 64 71 84 115 160 176 174 172 167 161 156 151 147 145 144 144 144 144 144 144 145 145 146 147 149 150 149 147 145 144 144 143 143 144 144 144 144 145 144
323 305 331 341 347 2 357 351 2 9 353 333 329 331 346 8 0 343 338 340 334 335 342 346 348 349 350 351 352 354 354 353 354 357 358 2 11 18 16 14 15 20 30 41 49 57 63 67 77 93 111 128 140 149 152 148 146 146 145 143 143 143 142 141 140 140 141 143 145 147 148 148 148 147 145 143 143 143 143 144 145 147 149 146 139
5 347 360 9 0 351 346 342 342 337 328 327 347 360 8 12 358 342 340 343 335 334 342 348 350 351 352 354 355 357 358 357 358 2 4 6 14 20 19 18 20 23 28 38 49 58 63 68 79 90 100 111 121 128 133 134 135 136 137 137 138 139 139 140 140 140 140 141 143 144 145 146 148 148 144 141 141 142 141 143 145 146 145 139 131
49 2 359 355 342 334 335 331 327 328 331 345 14 21 18 5 343 336 352 358 339 329 338 348 352 353 351 353 356 359 359 360 2 5 7 9 13 16 19 23 27 29 31 40 50 58 62 66 75 84 90 100 109 115 118 121 124 127 129 130 131 132 133 134 136 137 138 138 139 142 143 144 146 147 144 141 140 139 139 141 141 139 135 130 125
10 346 343 336 329 327 321 316 325 343 347 349 17 31 13 348 331 339 7 5 343 331 333 340 349 355 354 354 359 1 2 2 4 5 6 8 12 17 20 24 28 31 36 44 53 60 65 70 76 82 86 91 98 105 109 113 116 120 123 125 126 127 128 129 130 132 134 135 137 139 139 139 140 141 139 137 135 135 135 136 136 133 128 124 122
341 330 321 315 314 321 322 322 349 9 353 350 25 32 1 338 342 359 12 8 354 344 337 333 339 351 357 359 2 4 4 3 3 4 7 10 14 19 23 26 28 32 38 44 52 60 67 73 78 83 86 89 93 99 104 108 111 114 117 119 121 123 125 126 128 129 131 133 134 134 133 132 133 133 132 131 131 131 132 132 131 128 125 124 124
326 322 326 323 313 314 324 339 20 19 357 357 30 15 339 339 7 12 7 9 2 351 346 341 337 343 354 1 5 8 10 8 6 6 10 14 18 22 26 29 33 38 42 47 53 60 67 71 76 81 85 88 93 98 101 104 107 109 111 113 115 117 120 122 124 126 128 128 129 128 127 128 129 129 128 127 126 127 128 129 127 125 125 127 128
335 338 345 337 323 324 341 3 18 12 0 357 359 331 314 336 26 20 4 7 8 355 350 349 343 341 349 358 4 10 14 14 12 12 14 19 24 27 29 34 40 46 49 53 58 64 70 73 76 80 84 87 92 96 99 102 105 107 108 110 111 112 114 116 119 122 124 124 124 124 124 125 127 127 125 124 124 125 127 127 125 124 125 128 129
336 341 342 334 332 353 17 13 5 4 354 322 309 305 298 309 26 29 2 4 26 20 1 351 347 347 348 353 1 10 16 19 18 19 20 23 28 33 37 42 48 53 58 61 65 72 77 79 79 81 84 88 91 94 97 101 105 106 107 108 109 108 109 111 115 119 120 120 121 122 123 124 125 124 124 125 126 126 126 125 125 126 127 128 129
334 344 355 1 1 7 12 6 359 348 319 306 317 326 326 335 10 32 8 16 62 62 19 358 353 352 353 355 360 7 17 23 24 24 26 27 30 36 42 47 52 56 61 65 70 76 82 85 85 84 85 87 91 94 97 100 103 104 106 107 107 107 108 110 113 117 119 119 120 121 121 122 123 122 123 124 126 125 125 125 126 128 129 130 130
15 9 12 19 19 12 14 11 354 336 337 357 8 5 357 359 12 26 28 46 76 84 59 36 20 5 4 8 7 7 18 27 29 29 30 32 35 39 44 49 54 58 62 67 71 77 83 86 88 88 86 87 91 94 97 98 100 101 102 104 104 104 105 108 111 114 116 117 117 117 119 120 120 120 121 123 124 124 124 125 127 128 128 129 129
28 22 16 15 17 19 26 22 357 350 18 43 29 2 355 2 8 13 26 65 92 98 86 68 54 33 21 20 19 14 17 27 33 34 33 36 41 47 51 55 58 61 65 68 73 78 82 86 89 90 89 90 92 95 96 97 98 99 100 102 103 103 106 109 112 112 112 113 114 115 115 115 116 118 120 122 123 124 125 127 129 129 128 128 128
27 27 21 14 15 19 22 21 10 2 13 35 28 14 12 13 11 13 16 18 33 74 104 102 74 54 37 26 27 25 21 26 35 38 38 39 43 50 57 63 65 65 67 71 75 79 84 87 90 92 93 94 96 97 97 97 98 98 100 103 104 106 109 112 114 114 114 116 117 116 115 114 115 117 120 122 125 127 129 130 131 131 130 130 129
29 30 25 19 21 22 18 16 16 15 19 24 24 21 21 20 17 17 17 12 11 22 59 101 94 71 53 38 32 32 32 33 36 38 39 40 42 47 54 65 71 73 74 76 80 84 87 90 93 96 97 99 99 100 102 102 102 102 102 104 106 109 111 114 115 116 117 118 119 119 118 118 119 122 125 127 130 132 133 134 133 132 130 127 126
31 32 29 27 28 26 19 17 21 24 24 23 21 20 21 20 17 15 14 12 9 12 22 45 69 76 78 70 52 39 37 40 41 41 40 37 37 43 50 59 70 78 81 83 86 89 91 94 96 98 100 101 103 104 105 106 105 104 104 105 107 110 112 113 115 117 119 120 121 122 123 124 125 128 131 134 135 136 136 137 136 133 129 125 124
29 30 30 30 31 29 25 24 25 26 25 24 23 22 22 21 17 14 13 13 11 10 14 22 31 38 50 61 60 52 46 44 45 50 49 40 35 38 45 54 63 73 81 87 91 94 96 97 98 99 100 101 102 104 104 104 103 103 103 106 109 111 113 114 115 116 118 122 124 126 127 128 130 134 137 138 137 137 137 137 136 134 131 129 127
29 29 30 30 31 30 29 27 27 27 27 26 25 24 22 21 19 16 13 13 12 11 13 17 21 24 30 38 44 52 55 50 46 50 57 55 46 39 42 53 61 67 75 84 91 97 101 102 101 101 103 104 104 104 104 103 101 100 100 104 107 109 110 112 112 112 114 119 124 128 131 133 136 137 138 138 137 136 136 135 134 133 132 131 128